www.pogodaiklimat.ru

Погода и климат >> Архив погоды >> Экваториальная Гвинея >> Malabo


ПОГОДА в Malabo

  • Прогноз погоды в Malabo
  • Монитор погоды в Malabo
  • Климат города

АРХИВ ПОГОДЫ в Malabo

Время (UTC), дата Ветер
(напр.,м/с)
 
Видим.   Явления Облачность Т
(С)
Тd
(С)
f
(%)
Тe
(С)
Тes
(С)
Комфортность P
(гПа)
Po
(гПа)
Тmin
(С)
Tmax
(С)
R
(мм)
R24
(мм)
S
(см)
12 11.12 штиль 0 2200 м мгла 10/3 330 м
[Cu med, cong Ac As]
+31.5 +23.6 63 +43 +47 опасность
перегрева
1010.1 1007.1
15 11.12 штиль 0 2200 м мгла 10/3 360 м
[Sc Ac As]
+29.6 +24.9 76 +42 +44 опасность
перегрева
1010.0 1007.0
18 11.12 штиль 0 4000 м мгла 10/4 360 м
[Sc Ac As]
+27.9 +25.1 85 +40 +40 очень
душно
1009.5 1006.5
21 11.12 штиль 0 3000 м мгла 10/4 480 м
[Sc Ac As]
+26.8 +22.5 77 +35 +35 очень
душно
1011.2 1008.2
00 12.12 штиль 0 3000 м мгла 10/4 330 м
[Sc Ac As]
+25.0 +22.7 87 +33 +33 очень
душно
1012.0 1009.0
03 12.12 штиль 0 3000 м мгла 10/5 300 м
[Sc Ac As]
+23.5 +22.8 96 +31 +31 очень
душно
1010.0 1007.0
06 12.12 штиль 0 2200 м дымка 10/5 300 м
[Sc Ac As]
+23.1 +22.3 95 +32 +32 очень
душно
1011.0 1008.0 +23.4
09 12.12 штиль 0 6000 м мгла 9/5 360 м
[Cu med, cong Ac As]
+29.5 +24.4 74 +41 +45 опасность
перегрева
1012.6 1009.6
12 12.12 штиль 0 7000 м мгла 10/5 360 м
[Cu med, cong Ac As]
+30.5 +24.9 72 +44 +47 опасность
перегрева
1011.6 1008.6
15 12.12 ЮЗ 2 7000 м мгла 10/5 360 м
[Cu med, cong Ac As]
+30.3 +25.8 77 +45 +46 опасность
перегрева
1009.1 1006.1
18 12.12 штиль 0 10 км 3/3 360 м
[Cu Sc]
+23.3 +22.9 98 +33 +33 очень
душно
1011.6 1008.6
21 12.12 штиль 0 9000 м 9/5 400 м
[Sc Ac As]
+27.0 +25.6 92 +40 +40 очень
душно
1012.6 1009.6
00 13.12 штиль 0 7000 м 10/5 400 м
[Sc Ac As]
+25.0 +24.5 97 +35 +35 очень
душно
1011.6 1008.6
03 13.12 штиль 0 7000 м 10/5 400 м
[Sc Ac As]
+24.4 +23.6 95 +33 +33 очень
душно
1011.1 1008.1
06 13.12 штиль 0 7000 м 9/5 360 м
[Sc Ac As]
+24.5 +22.9 91 +32 +33 очень
душно
1011.4 1008.4 +25.0
09 13.12 штиль 0 8000 м 9/5 360 м
[Cu med, cong Ac As]
+30.5 +25.7 76 +45 +49 опасность
перегрева
1012.5 1009.5
12 13.12 штиль 0 5000 м мгла 9/5 360 м
[Cu med, cong Ac As]
+31.8 +24.5 65 +44 +49 опасность
перегрева
1010.1 1007.1
15 13.12 штиль 0 4000 м мгла 9/3 360 м
[Cu med, cong Ac As]
+31.4 +25.3 70 +45 +48 опасность
перегрева
1008.7 1005.7
18 13.12 штиль 0 3500 м дымка 9/3 360 м
[Sc Ac As]
+28.5 +25.3 83 +42 +42 опасность
перегрева
1009.5 1006.5
21 13.12 штиль 0 4000 м дымка 9/5 360 м
[Sc Ac As]
+27.0 +24.1 84 +37 +37 очень
душно
1011.5 1008.5
00 14.12 штиль 0 10 км 9/5 360 м
[Sc Ac As]
+25.5 +24.6 95 +36 +36 очень
душно
1011.0 1008.0
03 14.12 штиль 0 10 км 9/5 360 м
[Sc Ac As]
+24.5 +23.1 92 +33 +33 очень
душно
1010.2 1007.2
06 14.12 штиль 0 5000 м дымка 9/5 360 м
[Sc Ac As]
+24.5 +23.1 92 +33 +33 очень
душно
1011.4 1008.4 +24.0
12 14.12 штиль 0 3500 м мгла 9/3 400 м
[Cu med, cong Ac As]
+30.5 +25.6 75 +45 +51 опасность
перегрева
1010.6 1007.6
15 14.12 штиль 0 4000 м мгла 9/4 400 м
[Cu med, cong Ac As]
+30.0 +25.1 75 +43 +45 опасность
перегрева
1009.5 1006.5
18 14.12 штиль 0 7000 м 8/4 400 м
[Sc Ac trans]
+27.5 +24.6 84 +39 +39 очень
душно
1010.5 1007.5 +29.7
21 14.12 Ю 2 6000 м мгла 8/4 400 м
[Sc Ac trans]
+28.0 +25.8 88 +42 +42 опасность
перегрева
1011.4 1008.4
00 15.12 штиль 0 6000 м дымка 8/4 400 м
[Sc Ac trans]
+26.0 +24.8 93 +37 +37 очень
душно
1011.1 1008.1
03 15.12 штиль 0 4500 м дымка 9/5 360 м
[Sc Ac As]
+25.0 +24.1 95 +34 +34 очень
душно
1009.5 1006.5
06 15.12 штиль 0 4000 м дымка 9/4 400 м
[Cu med, cong Ac As]
+25.5 +23.4 88 +34 +34 очень
душно
1010.3 1007.3 +24.0
09 15.12 штиль 0 5000 м 5/4 400 м
[Cu med, cong Ac trans]
+30.5 +24.9 72 +44 +52 опасность
перегрева
1012.3 1009.3
12 15.12 З 1 10 км 5/4 400 м
[Cu med, cong Ac trans]
+30.5 +25.6 75 +45 +56 опасность
перегрева
1011.3 1008.3
15 15.12 Ю 3 10 км 6/5 400 м
[Cu med, cong Ac trans]
+30.7 +25.6 74 +45 +47 опасность
перегрева
1008.4 1005.4
18 15.12 ЮЗ 2 10 км 6/5 400 м
[Cu med, cong Ac trans]
+28.7 +25.2 81 +42 +42 опасность
перегрева
1009.2 1006.2
21 15.12 штиль 0 10 км 6/5 400 м
[Sc Ac trans]
+26.5 +24.6 89 +37 +37 очень
душно
1009.2 1006.2
00 16.12 штиль 0 10 км 6/4 400 м
[Sc Ac trans]
+25.5 +23.6 89 +35 +35 очень
душно
1011.6 1008.6
03 16.12 штиль 0 10 км 6/4 400 м
[Sc Ac trans]
+23.9 +22.4 91 +31 +31 очень
душно
1011.4 1008.4
06 16.12 штиль 0 10 км 9/4 400 м
[Sc Ac As]
+26.0 +24.6 92 +37 +37 очень
душно
1010.3 1007.3 +26.5
09 16.12 штиль 0 8000 м 10/5 400 м
[Sc Ac As]
+29.5 +24.9 76 +24 +27 комфорт 1012.1 1009.1
12 16.12 ЮЗ 2 8000 м 10/5 400 м
[Sc Ac As]
+30.0 +24.5 72 +42 +45 опасность
перегрева
1010.6 1007.6
15 16.12 штиль 0 6000 м мгла 10/3 400 м
[Cu med, cong Ac As]
+29.4 +24.9 77 +42 +44 опасность
перегрева
1008.1 1005.1
18 16.12 штиль 0 7000 м 9/3 400 м
[Sc Ac As]
+28.0 +25.2 85 +41 +41 опасность
перегрева
1008.7 1005.7
21 16.12 штиль 0 7000 м 6/5 400 м
[Sc Ac trans]
+26.5 +25.1 92 +38 +38 очень
душно
1011.6 1008.6
00 17.12 штиль 0 8000 м 9/5 400 м
[Sc Ac As]
+25.0 +23.6 92 +34 +34 очень
душно
1011.0 1008.0
03 17.12 штиль 0 8000 м 9/5 400 м
[Sc Ac As]
+23.5 +22.1 92 +30 +30 очень
душно
1009.1 1006.1
06 17.12 штиль 0 8000 м 9/5 400 м
[Sc Ac As]
+25.1 +23.5 91 +34 +34 очень
душно
1011.0 1008.0 +24.7
09 17.12 штиль 0 6000 м 10/3 400 м
[Cu med, cong Ac As]
+29.5 +24.8 76 +42 +45 опасность
перегрева
1011.8 1008.8
12 17.12 штиль 0 4500 м мгла {гроза} 9/1 400 м
[Cu med, cong Ac As]
+31.5 +23.3 62 +42 +50 опасность
перегрева
1010.0 1007.0
15 17.12 штиль 0 7000 м мгла 9/3 400 м
[Cu med, cong Ac As]
+30.0 +24.2 71 +42 +44 опасность
перегрева
1008.0 1005.0
18 17.12 штиль 0 10 км 9/3 400 м
[Sc Ac As]
+28.0 +25.2 85 +41 +41 опасность
перегрева
1009.9 1006.9 +32.1
21 17.12 штиль 0 6000 м мгла 6/3 400 м
[Cu med, cong Ac trans]
+25.6 +23.8 90 +35 +35 очень
душно
1008.9 1005.9
00 18.12 штиль 0 н/о 9/4 400 м
[Sc Ac As]
+25.0 +23.6 92 +34 +34 очень
душно
1011.0 1008.0
03 18.12 штиль 0 4500 м мгла 10/4 400 м
[Sc Ac As]
+24.5 +23.5 94 +33 +33 очень
душно
1010.1 1007.1
06 18.12 штиль 0 7000 м 9/3 400 м
[Cu med, cong Ac As]
+25.4 +23.3 88 +34 +34 очень
душно
1010.8 1007.8 +24.9
09 18.12 штиль 0 10 км 5/4 400 м
[Cu med, cong Ac trans]
+30.5 +23.9 68 +42 +50 опасность
перегрева
1012.1 1009.1

 

Местоположение метеостанции Malabo (Экваториальная Гвинея): широта 3.76 долгота 8.71 высота над уровнем моря 23 м.

В архиве по умолчанию представлена погода в Malabo за последнюю неделю. Архивные данные за месяц целиком и за предыдущие месяцы, начиная с января 2011 года, Вы можете получить, выбрав интересующий диапазон дат из раскрывающегося списка и нажав кнопку "Ввод!".

Внимание! Время в таблицах - всемирное. Для получения местного времени необходимо прибавить поправку, которая в Malabo равна 1 ч.

Смотрите также архив погоды в соседних городах и на ближайших метеорологических станциях:

Погода в Douala (Камерун) (116 км)
Погода в Port Harcourt (Нигерия) (223 км)
Погода в Bata (Экваториальная Гвинея) (239 км)
Погода в Bitam (Габон) (360 км)
Погода в Libreville (Габон) (377 км)
Погода в Oyem (Габон) (400 км)
Погода в Makurdi (Нигерия) (442 км)
Погода в Port-Gentil (Габон) (496 км)
Погода в Lambarene (Габон) (525 км)
Погода в Makokou (Габон) (583 км)

Пояснения к столбцам:

Ветер - указаны скорость ветра в м/с - средняя за 10 мин, порывы в срок и между сроками (в фигурных скобках) и направление, откуда дует ветер: С - северный, СВ - северо-восточный, В - восточный, ЮВ - юго-восточный, Ю - южный, ЮЗ - юго-западный, З - западный, СЗ - северо-западный.
Видимость - горизонтальная дальность видимости в метрах или километрах. При видимости от 1 до 10 км при отсутствии осадков обычно наблюдается дымка, при ухудшении видимости до 1 км и менее - туман. В сухую погоду видимость может ухудшаться дымом, пылью или мглою.
Явления - указаны атмосферные явления, наблюдавшиеся в срок или в последний час перед сроком; фигурными скобками обозначены явления, наблюдавшиеся между сроками (за 1-3 часа до срока); квадратными скобками обозначены град или гололедные отложения с указанием их диаметра в мм.
Облачность - указаны через наклонную черту общая и нижняя облачность в баллах и высота нижней границы облаков в метрах; квадратными скобками обозначены формы облаков: Ci - перистые, Cs - перисто-слоистые, Cc - перисто-кучевые, Ac - высококучевые, As - высокослоистые, Sc - слоисто-кучевые, Ns - слоисто-дождевые, Cu - кучевые, Cb - кучево-дождевые. Подробнее классификацию облаков см. в Атласе облаков (PDF).
T - Температура воздуха - температура, измеренная на высоте 2 м над землей.
Td - Температура точки росы - температура, при понижении до которой содержащийся в воздухе водяной пар достигнет насыщения.
f - Относительная влажность воздуха - влажноcть воздуха, измеренная на высоте 2 м над землей.
Te - Эффективная температура - температура, которую ощущает одетый по сезону человек в тени. Характеристика душности погоды. При расчете учитывается влияние влажности воздуха и скорости ветра на теплоощущения человека.
Tes - Эффективная температура на солнце - температура, которую ощущает человек, с поправкой на солнечный нагрев. Характеристика знойности погоды. Зависит от высоты солнца над горизонтом, облачности и скорости ветра. Ночью, в пасмурную погоду, а также при ветре 12 м/с и более поправка равна нулю.
P - Атмосферное давление - приведенное к уровню моря атмосферное давление.
Po - Атмосферное давление - измеренное на уровне метеостанции атмосферное давление.
Tmin - Минимальная температура - минимум температуры воздуха на высоте 2 м над землей.
Tmax - Максимальная температура - максимум температуры воздуха на высоте 2 м над землей.
R - Количество осадков - Количество выпавших осадков за период времени, мм. При наведении курсора мыши на число - период времени, за который выпало указанное количество осадков.
R24 - Количество осадков - Количество выпавших осадков за 24 часа, мм.
S - Снежный покров - Высота снежного покрова, см. При наведении курсора мыши на число - состояние снежного покрова и степень покрытия местности в баллах.